Marietta, GA

1:51 PM EDT on June 26, 2017 (GMT -0400)
Dobbins Air Force Base

Weather History for KMGE - December, 2013

Change the Weather History Date:

Wednesday, December 4, 2013

  Actual Average Record
Temperature  
Mean Temperature 63 °F -  
Max Temperature 71 °F 55 °F 75 °F (1998)
Min Temperature 55 °F 37 °F 26 °F (2006)
Degree Days  
Heating Degree Days 2    
Growing Degree Days 13 (Base 50)    
Moisture  
Dew Point 60 °F    
Average Humidity 97    
Maximum Humidity 100    
Minimum Humidity 72    
Precipitation  
Precipitation 0.01 in - - ()
Sea Level Pressure  
Sea Level Pressure 29.98 in    
Wind  
Wind Speed 4 mph (ESE)    
Max Wind Speed 12 mph    
Max Gust Speed -    
Visibility 5 miles    
Events Fog , Rain    
Averages and records for this station are not official NWS values.
T = Trace of Precipitation, MM = Missing Value Source: NWS Daily Summary

Daily Weather History Graph

Daily Weather History Graph

Search for Another Location

Airport or City:

Trip Planner

Search our weather history database for the weather conditions in past years. The results will help you decide how hot, cold, wet, or windy it might be!

Date:

Astronomy

Dec. 04, 2013 Rise Set
Actual Time 7:27 AM EST 5:28 PM EST
Civil Twilight 7:00 AM EST 5:56 PM EST
Nautical Twilight 6:29 AM EST 6:27 PM EST
Astronomical Twilight 5:59 AM EST 6:57 PM EST
Moon 8:56 AM EST (12/4) 7:36 PM EST (12/4)
Length of Visible Light 10h 55m
Length of Day
10h 00m
Waxing Crescent, 4% of the Moon is Illuminated
Dec 4
Waxing Crescent
Dec 9
First Quarter
Dec 17
Full
Dec 25
Last Quarter
Jan 1
New

Hourly Weather History & Observations

Time (EST) Temp. Dew Point Humidity Pressure Visibility Wind Dir Wind Speed Gust Speed Precip Events Conditions
12:13 AM 55.4 °F 55.4 °F 100% 29.92 in 4.0 mi ENE 3.5 mph - N/A   Overcast
12:28 AM 55.4 °F 55.4 °F 100% 29.92 in 3.0 mi NE 3.5 mph - N/A   Overcast
12:33 AM 55.4 °F 55.4 °F 100% 29.92 in 2.0 mi NE 2.3 mph - N/A   Overcast
12:38 AM 55.4 °F 55.4 °F 100% 29.92 in 1.5 mi ENE 2.3 mph - N/A   Overcast
12:43 AM 55.4 °F 55.4 °F 100% 29.92 in 1.2 mi East 2.3 mph - N/A   Overcast
12:48 AM 55.4 °F 55.4 °F 100% 29.92 in 0.8 mi ENE 2.3 mph - N/A   Mist
12:53 AM 55.4 °F 55.4 °F 100% 29.92 in 0.8 mi East 5.8 mph - N/A   Mist
12:58 AM 55.4 °F 55.4 °F 100% 29.92 in 0.5 mi ENE 4.6 mph - N/A Fog Fog
1:58 AM 55.2 °F 55.2 °F 100% 29.92 in 0.5 mi East 3.5 mph - N/A Fog Fog
2:43 AM 55.4 °F 55.4 °F 100% 29.93 in 0.8 mi East 3.5 mph - N/A   Mist
2:58 AM 55.4 °F 55.4 °F 100% 29.93 in 0.8 mi East 3.5 mph - N/A   Mist
3:55 AM 55.4 °F 55.4 °F 100% 29.92 in 0.8 mi East 3.5 mph - N/A Rain Light Rain
3:58 AM 55.6 °F 55.6 °F 100% 29.92 in 0.8 mi East 4.6 mph - 0.00 in Rain Light Rain
4:04 AM 55.4 °F 55.4 °F 100% 29.92 in 0.8 mi East 3.5 mph - N/A   Mist
4:10 AM 55.4 °F 55.4 °F 100% 29.92 in 0.8 mi East 4.6 mph - N/A Rain Light Rain
4:21 AM 55.4 °F 55.4 °F 100% 29.92 in 0.8 mi East 2.3 mph - N/A   Mist
4:26 AM 55.4 °F 55.4 °F 100% 29.92 in 1.0 mi ENE 3.5 mph - N/A   Mist
4:41 AM 55.4 °F 55.4 °F 100% 29.93 in 1.0 mi East 2.3 mph - N/A   Mist
4:56 AM 55.4 °F 55.4 °F 100% 29.93 in 1.2 mi Calm Calm - N/A   Overcast
4:58 AM 55.8 °F 55.8 °F 100% 29.93 in 1.2 mi Calm Calm - 0.00 in   Overcast
5:13 AM 55.4 °F 55.4 °F 100% 29.94 in 1.0 mi NE 3.5 mph - N/A   Mist
5:33 AM 55.4 °F 55.4 °F 100% 29.95 in 1.2 mi Calm Calm - N/A   Overcast
5:38 AM 55.4 °F 55.4 °F 100% 29.95 in 1.0 mi ENE 2.3 mph - N/A   Mist
5:58 AM 55.6 °F 55.6 °F 100% 29.96 in 1.0 mi ENE 3.5 mph - N/A   Mist
6:28 AM 55.4 °F 55.4 °F 100% 29.96 in 0.8 mi East 3.5 mph - N/A   Mist
6:33 AM 55.4 °F 55.4 °F 100% 29.96 in 1.0 mi East 3.5 mph - N/A   Mist
6:53 AM 55.4 °F 55.4 °F 100% 29.96 in 1.2 mi East 3.5 mph - N/A   Overcast
6:58 AM 55.8 °F 55.8 °F 100% 29.97 in - East 2.3 mph - N/A   Overcast
7:09 AM 55.4 °F 55.4 °F 100% 29.97 in 0.8 mi East 1.2 mph - N/A   Overcast
7:21 AM 55.4 °F 55.4 °F 100% 29.97 in 0.5 mi ESE 4.6 mph - N/A Fog Fog
7:33 AM 55.4 °F 55.4 °F 100% 29.97 in 0.4 mi East 2.3 mph - N/A Fog Fog
7:58 AM 56.5 °F 56.5 °F 100% 29.98 in 0.4 mi ENE 1.2 mph - N/A Fog Fog
8:29 AM 57.2 °F 57.2 °F 100% 29.99 in 0.5 mi East 2.3 mph - N/A Fog Fog
8:38 AM 57.2 °F 57.2 °F 100% 29.99 in 0.8 mi ENE 3.5 mph - N/A   Overcast
8:46 AM 57.2 °F 57.2 °F 100% 30.00 in 1.2 mi ENE 3.5 mph - N/A   Overcast
8:55 AM 57.2 °F 57.2 °F 100% 30.01 in 1.5 mi East 3.5 mph - N/A   Overcast
8:58 AM 57.9 °F 57.9 °F 100% 30.01 in 1.5 mi East 3.5 mph - N/A   Overcast
9:31 AM 59.0 °F 59.0 °F 100% 30.02 in 1.5 mi East 2.3 mph - N/A   Overcast
9:58 AM 60.8 °F 60.8 °F 100% 30.02 in 1.5 mi ESE 3.5 mph - N/A   Overcast
10:22 AM 60.8 °F 60.8 °F 100% 30.03 in 2.0 mi SSE 2.3 mph - N/A   Overcast
10:42 AM 62.6 °F 62.6 °F 100% 30.02 in 2.0 mi SSE 4.6 mph - N/A   Overcast
10:52 AM 62.6 °F 62.6 °F 100% 30.03 in 3.0 mi South 5.8 mph - N/A   Overcast
10:58 AM 63.3 °F 63.3 °F 100% 30.03 in 4.0 mi South 6.9 mph - N/A   Overcast
11:19 AM 64.4 °F 64.4 °F 100% 30.02 in 7.0 mi Variable 4.6 mph - N/A   Mostly Cloudy
11:36 AM 64.4 °F 64.4 °F 100% 30.02 in 7.0 mi SSW 5.8 mph - N/A   Mostly Cloudy
11:58 AM 66.0 °F 66.0 °F 100% 30.01 in 10.0 mi SSW 9.2 mph - N/A   Mostly Cloudy
12:12 PM 68.0 °F 66.2 °F 94% 29.99 in 10.0 mi SSW 11.5 mph - N/A   Mostly Cloudy
12:43 PM 68.0 °F 62.6 °F 83% 29.98 in 10.0 mi SSW 9.2 mph - N/A   Mostly Cloudy
12:58 PM 68.5 °F 62.4 °F 81% 29.96 in 10.0 mi SSW 5.8 mph - N/A   Overcast
1:07 PM 68.0 °F 62.6 °F 83% 29.97 in 10.0 mi SSW 8.1 mph - N/A   Mostly Cloudy
1:23 PM 69.8 °F 62.6 °F 78% 29.96 in 10.0 mi SSW 6.9 mph - N/A   Mostly Cloudy
1:58 PM 71.1 °F 62.4 °F 74% 29.94 in 10.0 mi SSW 9.2 mph - N/A   Mostly Cloudy
2:58 PM 70.9 °F 61.5 °F 72% 29.94 in 10.0 mi South 6.9 mph - N/A   Mostly Cloudy
3:58 PM 70.2 °F 61.2 °F 73% 29.94 in 10.0 mi South 5.8 mph - N/A   Mostly Cloudy
4:58 PM 68.7 °F 61.3 °F 77% 29.96 in 10.0 mi SSE 5.8 mph - N/A   Mostly Cloudy
5:58 PM 66.2 °F 61.3 °F 84% 29.99 in 10.0 mi SSE 5.8 mph - N/A   Mostly Cloudy
6:58 PM 65.5 °F 61.9 °F 88% 30.01 in 10.0 mi SSE 5.8 mph - N/A   Mostly Cloudy
7:58 PM 64.0 °F 62.1 °F 93% 30.01 in 10.0 mi SE 4.6 mph - N/A   Mostly Cloudy
8:16 PM 64.4 °F 62.6 °F 94% 30.01 in 10.0 mi SE 6.9 mph - N/A   Mostly Cloudy
8:43 PM 64.4 °F 62.6 °F 94% 30.02 in 10.0 mi East 2.3 mph - N/A   Mostly Cloudy
8:58 PM 64.0 °F 62.8 °F 96% 30.01 in 10.0 mi East 4.6 mph - N/A   Overcast
9:03 PM 64.4 °F 62.6 °F 94% 30.02 in 10.0 mi East 3.5 mph - N/A   Overcast
9:18 PM 64.4 °F 62.6 °F 94% 30.02 in 10.0 mi East 4.6 mph - N/A   Overcast
9:23 PM 64.4 °F 62.6 °F 94% 30.02 in 10.0 mi ESE 4.6 mph - N/A   Overcast
9:38 PM 64.4 °F 62.6 °F 94% 30.02 in 10.0 mi SE 5.8 mph - N/A   Overcast
9:43 PM 64.4 °F 62.6 °F 94% 30.02 in 3.0 mi SE 6.9 mph - N/A   Light Drizzle
9:52 PM 64.4 °F 64.4 °F 100% 30.02 in 3.0 mi SE 5.8 mph - N/A Rain Light Rain
9:55 PM 64.4 °F 64.4 °F 100% 30.02 in 2.5 mi SE 6.9 mph - N/A Rain Light Rain
9:58 PM 64.4 °F 63.9 °F 98% 30.01 in 2.5 mi SE 6.9 mph - 0.01 in Rain Light Rain
10:15 PM 64.4 °F 64.4 °F 100% 30.02 in 7.0 mi SSE 8.1 mph - N/A   Overcast
10:26 PM 64.4 °F 64.4 °F 100% 30.03 in 7.0 mi South 4.6 mph - N/A   Overcast
10:31 PM 64.4 °F 64.4 °F 100% 30.03 in 7.0 mi South 6.9 mph - N/A   Overcast
10:36 PM 64.4 °F 64.4 °F 100% 30.03 in 7.0 mi Variable 4.6 mph - N/A   Overcast
10:41 PM 64.4 °F 64.4 °F 100% 30.03 in 7.0 mi South 8.1 mph - N/A   Overcast
10:58 PM 64.9 °F 64.4 °F 98% 30.03 in 10.0 mi South 6.9 mph - 0.00 in   Overcast
11:03 PM 64.4 °F 64.4 °F 100% 30.04 in 10.0 mi South 5.8 mph - N/A   Overcast
11:13 PM 64.4 °F 64.4 °F 100% 30.05 in 10.0 mi South 5.8 mph - N/A   Overcast
11:18 PM 64.4 °F 64.4 °F 100% 30.05 in 10.0 mi South 4.6 mph - N/A   Overcast
11:28 PM 64.4 °F 64.4 °F 100% 30.05 in 10.0 mi SSE 4.6 mph - N/A   Overcast
11:46 PM 64.4 °F 64.4 °F 100% 30.05 in 8.0 mi South 3.5 mph - N/A Rain Light Rain
11:51 PM 64.4 °F 64.4 °F 100% 30.05 in 6.0 mi South 3.5 mph - N/A   Light Drizzle
11:56 PM 64.4 °F 64.4 °F 100% 30.05 in 7.0 mi SSE 3.5 mph - N/A   Light Drizzle
11:58 PM 64.8 °F 64.8 °F 100% 30.04 in 7.0 mi South 2.3 mph - 0.00 in   Light Drizzle
11:59 PM 64.4 °F 64.4 °F 100% 30.05 in 9.0 mi SSE 3.5 mph - N/A   Overcast